{"data":{"norad_id":56718,"intl_designator":"2023-068J","name":"ONEWEB-0682","alt_names":[],"object_type":"PAYLOAD","status":"ACTIVE","operator":null,"country":"UK","launch_date":"2023-05-20","launch_site_code":"AFWTR","launch_vehicle":null,"mission":null,"orbit_class":"UNKNOWN","rcs_meters":null,"size_class":null,"mass_kg":null,"dimensions":null,"purposes":["comms"],"wikipedia_slug":null,"has_3d_model":false,"image_url":null,"decayed_at":null,"tle_current":{"epoch":"2026-09-19T17:21:08.703360Z","epoch_age_seconds":89161,"freshness":"FRESH","line1":"1 56718U 23068J   26262.72301740 -.00000001  00000+0 -37549-4 0  9992","line2":"2 56718  87.8991 240.3480 0001886  97.8084 262.3261 13.15548229161887","mean_motion":13.15548229,"eccentricity":0.0001886,"inclination_deg":87.8991,"raan_deg":240.348,"arg_perigee_deg":97.8084,"mean_anomaly_deg":262.3261,"bstar":-3.7549e-5,"rev_number":16188,"period_min":109.46006906144,"perigee_km":1200.3424296463,"apogee_km":1203.2015713212,"semimajor_km":7579.9090004837,"source":"CELESTRAK","updated_at":"2026-09-20T09:00:44.795968Z"}}}